Theta_e
312 319 320 320 323 324 325 325 324 323 321 320 316 316 316 316 309 308 304 302 303 301 299 299 298 292 289 289 289 289 289 290 290 288 286 285 284 283 282 281 280 279 279
309 316 318 319 323 321 321 322 321 320 316 316 311 307 305 305 303 304 302 301 301 299 298 292 289 289 289 289 289 290 290 289 288 286 284 283 281 281 280 280 279 278 279
310 314 319 322 323 321 319 318 315 311 309 305 304 304 301 301 300 301 301 300 299 295 288 288 289 288 289 289 289 289 289 287 284 283 282 281 280 280 279 279 279 278 278
312 313 318 320 321 316 313 312 311 307 304 303 301 301 302 300 299 299 298 296 288 287 287 288 288 288 289 289 289 288 285 283 282 282 281 280 279 279 279 278 278 276 277
311 309 313 316 313 310 308 302 304 303 303 301 300 300 299 298 297 297 292 289 288 288 288 288 288 288 288 288 287 284 282 282 281 280 280 279 278 278 278 277 275 275 275
305 306 303 308 306 303 303 301 300 299 300 300 298 297 296 296 291 289 287 288 288 288 288 287 287 288 288 285 283 282 282 281 280 279 278 278 278 277 275 274 273 272 271
298 299 300 300 299 300 299 298 298 298 297 296 295 295 292 286 285 286 287 287 288 287 287 287 288 287 284 282 281 281 280 279 279 279 278 277 276 274 273 272 271 271 272
294 294 294 297 296 297 298 297 295 294 294 293 291 286 286 285 286 286 286 287 287 287 287 287 286 283 281 280 280 280 280 279 278 278 277 275 275 273 272 271 271 271 271
291 291 291 293 293 295 294 293 293 294 292 288 287 287 285 284 285 286 286 286 286 287 286 285 282 281 281 281 280 280 279 278 277 276 275 274 273 272 272 272 271 271 271
289 289 290 291 292 293 293 293 293 292 290 286 284 285 285 285 285 285 285 286 287 286 284 282 281 280 280 280 279 279 279 278 277 276 275 274 273 273 272 271 271 271 270
291 292 293 294 294 294 294 293 292 288 285 285 285 285 285 286 285 286 286 287 286 283 281 281 280 280 279 279 279 278 278 277 276 275 275 274 273 272 272 272 271 271 270
294 294 294 295 295 295 293 288 285 285 286 286 286 286 286 286 286 287 287 285 282 281 281 280 280 279 279 278 278 277 276 275 274 274 273 273 273 273 272 272 271 270 270
295 295 295 293 289 287 286 286 287 287 287 287 287 287 286 286 287 286 284 281 281 281 280 280 279 279 278 277 277 276 275 274 273 273 273 273 273 273 272 272 271 270 270
289 286 285 286 286 286 287 287 287 287 287 287 286 286 287 288 286 283 281 281 280 280 280 279 278 278 278 277 276 275 274 274 274 274 273 273 273 273 272 272 271 270 270
288 287 287 286 286 286 285 285 286 285 286 286 287 287 287 286 283 281 280 280 280 279 279 279 278 278 277 276 275 275 275 275 274 273 273 273 273 273 272 271 270 270 269
291 290 290 290 290 290 289 288 286 286 287 287 287 288 286 285 281 280 279 279 279 278 278 278 278 277 277 276 276 276 276 275 274 274 274 273 273 272 272 271 270 269 270
293 293 292 291 291 290 288 286 287 285 285 285 285 286 285 283 280 279 279 279 279 279 278 278 277 277 277 276 275 275 275 274 274 273 273 273 272 272 272 271 270 270 270
292 291 290 292 291 290 287 285 285 286 287 286 286 286 285 282 280 279 279 279 279 278 278 278 277 276 276 275 275 274 274 274 274 273 273 272 272 271 271 270 269 270 269
291 290 289 290 291 287 285 285 285 286 286 286 285 284 281 280 279 278 279 279 278 278 277 277 276 276 275 274 274 274 274 274 273 272 272 272 271 271 270 269 269 269 268
289 291 290 290 290 288 285 285 285 285 285 285 284 283 280 278 278 278 278 278 277 277 276 276 275 275 274 274 274 274 274 273 273 272 272 271 271 270 269 269 269 269 268
288 290 289 290 290 289 286 284 284 284 283 284 283 283 281 279 278 278 277 277 276 276 275 275 275 274 274 274 274 274 273 273 273 272 272 271 270 270 269 269 269 268 268
290 289 288 289 289 288 286 284 284 283 283 283 283 282 281 279 277 277 276 276 276 276 275 275 274 274 273 273 273 273 273 273 272 272 271 271 270 269 269 269 269 268 268
289 290 290 290 289 287 285 284 284 283 283 283 282 282 280 278 277 276 276 275 275 275 274 274 274 274 273 273 273 272 272 272 272 272 272 270 270 269 268 269 268 268 268
289 288 287 287 286 285 285 284 284 284 283 283 282 281 279 277 276 276 275 275 275 274 274 274 273 273 273 273 273 272 272 272 272 273 271 270 269 269 268 268 268 268 268
288 287 286 286 285 284 284 284 284 284 283 282 281 279 277 276 276 275 275 274 274 274 274 273 273 273 273 273 273 272 272 272 273 271 270 269 269 269 269 268 269 268 268
288 287 286 286 285 285 284 284 284 283 282 281 279 278 277 276 276 275 274 274 273 273 273 273 273 273 272 272 273 272 273 273 272 270 269 269 269 269 269 269 269 268 268
Wind_Speed
24 28 33 33 37 39 43 41 41 44 45 47 44 46 46 44 39 35 29 27 25 23 22 24 21 15 13 12 11 9 6 6 6 6 8 9 13 16 19 21 24 24 25
21 22 31 32 34 28 36 37 39 38 39 40 40 37 34 33 29 26 28 28 23 28 29 21 19 16 13 10 8 5 5 4 3 4 6 10 13 16 20 22 23 24 27
21 21 33 35 33 28 31 30 28 29 28 31 29 31 29 28 27 28 28 29 31 26 23 20 17 15 11 8 5 4 3 3 4 4 7 10 14 17 20 22 26 28 28
20 32 35 32 31 28 25 24 22 26 31 28 30 32 28 29 32 32 34 32 29 26 22 18 15 12 8 5 3 2 4 4 5 7 9 12 15 19 23 27 28 29 31
22 29 32 32 28 25 24 27 28 29 32 35 34 33 35 35 36 35 31 29 26 24 21 17 13 10 6 1 2 3 4 5 7 8 10 14 18 22 25 28 30 34 35
23 26 27 32 30 30 29 34 37 42 40 38 39 39 39 36 31 27 26 25 23 20 17 14 10 5 3 1 2 4 6 7 8 11 15 17 19 22 24 27 30 34 36
28 30 30 34 37 37 41 43 44 42 40 41 41 39 36 30 29 26 23 23 20 17 13 10 7 4 1 1 4 6 7 10 13 15 15 17 19 21 25 28 30 31 34
30 35 38 39 42 46 45 44 45 44 44 42 39 35 32 28 26 24 21 19 17 15 11 8 6 3 2 2 3 4 7 10 13 13 14 16 19 21 24 27 30 33 35
34 36 37 41 44 46 47 47 46 43 39 38 33 30 29 27 22 20 17 16 14 11 9 6 3 1 2 3 5 8 10 11 12 14 16 16 17 18 21 26 27 31 37
35 37 39 41 45 47 46 44 42 39 38 33 31 27 24 24 19 17 14 11 10 8 6 4 1 1 4 7 8 10 12 12 14 14 16 17 19 20 21 24 27 30 32
35 38 40 41 41 40 38 38 38 35 33 30 27 23 20 17 16 13 11 9 7 5 4 2 1 3 5 9 11 13 15 15 17 19 21 22 22 23 24 24 26 28 30
38 39 37 35 36 35 33 33 31 30 28 26 24 22 18 15 12 10 7 5 4 4 3 1 2 4 7 9 11 14 16 18 20 21 22 23 25 27 27 27 27 28 27
35 36 36 34 31 29 27 27 25 23 21 21 18 17 16 12 9 7 5 5 4 3 2 1 3 6 8 10 13 16 17 19 21 23 25 26 28 29 29 31 29 29 28
31 30 29 28 27 25 22 20 19 18 17 17 16 13 11 8 6 5 6 5 4 2 2 3 5 7 10 12 14 17 19 21 23 24 26 28 31 32 32 32 33 33 33
24 24 23 22 21 20 19 16 14 14 11 9 9 7 6 6 5 5 4 4 2 3 4 6 8 10 12 14 15 17 20 23 25 26 28 32 33 34 34 33 32 32 32
17 17 16 13 12 12 12 14 14 12 9 8 7 6 4 4 4 5 5 4 4 5 5 7 9 12 14 16 18 19 20 23 25 28 30 32 35 35 36 34 32 32 33
10 12 9 7 8 9 8 8 9 12 10 8 6 5 5 5 6 7 6 5 6 8 8 10 12 14 16 18 20 22 24 25 27 29 31 32 34 35 35 34 33 33 34
8 6 6 4 4 5 4 4 4 5 5 6 7 7 8 9 8 9 9 10 9 9 11 13 15 17 18 21 23 25 26 28 30 31 32 33 34 35 36 34 33 33 33
6 3 1 1 3 5 6 7 6 5 5 6 7 8 10 10 11 11 12 12 12 13 14 15 17 19 21 23 26 27 29 31 32 33 33 34 34 35 36 34 33 32 32
7 5 5 6 5 6 7 7 8 9 10 10 11 11 11 12 13 12 14 14 15 16 17 18 19 21 23 26 28 30 32 33 34 35 35 34 34 34 35 34 33 33 31
10 9 11 12 9 9 10 11 12 13 13 13 13 14 15 15 16 16 17 17 18 19 19 21 22 23 25 27 30 32 33 35 35 36 36 36 35 36 34 34 33 32 30
11 13 14 15 13 12 12 13 15 15 16 16 16 17 19 18 17 19 19 19 21 21 22 24 25 26 27 29 31 33 34 36 36 37 37 38 38 37 36 34 33 30 29
13 12 13 14 14 15 15 15 16 17 17 18 18 19 20 20 19 20 21 22 23 23 24 26 28 28 28 30 31 33 35 37 37 37 40 40 40 39 36 35 31 30 32
13 13 12 13 14 15 16 16 17 18 19 19 20 20 21 21 21 22 23 23 24 25 26 28 29 30 31 31 31 33 35 35 36 38 38 39 39 37 34 32 29 31 33
13 13 13 13 14 16 17 18 18 19 19 20 20 21 21 22 23 23 24 25 26 27 27 29 29 30 31 31 32 34 34 36 37 35 38 37 36 34 30 30 32 34 31
12 13 13 15 16 17 18 18 19 19 20 20 21 22 22 23 23 24 25 26 27 29 29 30 30 30 31 31 33 35 36 36 35 35 35 34 33 31 31 34 35 35 35
Wind_Direction
220 211 213 222 227 229 228 228 227 222 215 211 203 194 195 197 190 184 176 169 168 180 181 175 161 156 156 155 154 162 186 215 236 237 254 277 294 301 307 313 314 319 324
219 213 212 221 217 228 218 221 220 218 210 206 194 190 178 172 169 164 165 168 176 167 161 151 149 149 148 149 159 179 215 236 244 258 283 293 297 307 311 315 317 325 330
203 203 207 207 215 219 218 215 215 209 200 185 179 170 158 151 160 161 164 157 155 146 144 148 146 145 151 161 184 217 251 292 315 308 305 311 314 314 317 322 328 328 333
198 193 192 196 201 203 202 197 192 190 174 163 157 152 154 160 162 156 152 143 141 145 143 144 147 154 161 179 202 292 313 323 333 334 324 318 320 325 330 328 326 332 334
188 180 177 178 181 179 171 167 161 163 163 156 157 156 154 156 154 148 140 144 145 144 145 151 157 158 170 185 324 309 324 339 332 323 327 333 337 332 327 327 330 333 338
166 164 160 159 158 154 152 153 153 153 151 156 155 151 148 142 130 140 144 141 145 144 148 153 155 164 142 252 303 329 328 330 335 345 346 340 330 325 324 330 332 333 334
140 141 146 150 148 148 152 150 151 149 149 149 145 140 130 134 141 142 144 142 143 140 145 153 145 146 153 38 351 331 330 344 348 345 336 327 328 328 329 329 329 328 327
133 137 142 145 145 146 147 146 145 141 143 136 127 124 131 143 143 143 142 142 140 144 148 145 153 148 112 344 307 327 342 346 341 327 324 329 330 330 323 323 324 323 324
127 132 137 140 141 142 140 139 136 138 128 122 124 134 148 142 141 136 143 143 142 140 150 149 121 120 292 325 351 349 342 336 328 327 326 324 321 323 321 321 322 324 329
124 128 133 135 134 132 132 134 130 128 122 130 140 143 141 134 135 139 141 141 149 146 138 131 147 305 328 351 349 334 327 329 321 323 326 328 326 325 322 323 324 325 329
121 123 125 128 128 127 127 124 121 121 135 139 138 135 134 135 139 147 152 152 144 141 140 150 242 345 340 334 334 327 321 325 324 327 330 331 329 328 327 326 324 324 326
115 118 120 120 120 119 118 121 134 137 137 137 138 136 139 146 152 151 147 147 148 162 163 172 316 328 330 321 318 315 319 321 322 323 326 329 330 332 330 327 328 326 323
116 116 114 112 113 119 124 130 133 136 137 135 139 146 150 147 144 147 155 157 155 163 174 248 303 315 313 314 314 320 321 321 323 325 327 328 329 330 331 329 329 323 320
112 118 121 122 125 128 130 131 132 135 141 144 149 147 145 151 164 170 166 161 166 188 243 281 297 307 315 315 315 319 324 324 323 323 324 327 331 332 332 329 328 324 321
118 120 124 125 128 130 129 125 128 129 127 139 148 158 173 180 180 175 173 181 209 248 275 292 305 311 311 314 317 320 322 323 323 323 326 329 329 328 328 327 325 322 322
114 116 115 116 124 135 142 147 152 158 155 163 180 191 200 220 215 207 206 223 240 273 295 297 299 300 306 313 319 321 321 321 322 324 326 327 327 326 325 325 325 322 323
119 119 115 122 138 149 157 166 169 171 179 193 203 222 238 245 230 223 230 254 280 289 294 298 298 304 309 312 317 319 321 323 322 324 325 324 323 323 322 324 323 322 322
141 127 104 91 131 153 165 184 213 223 219 221 237 249 258 259 248 247 252 259 269 287 292 293 301 307 314 317 316 317 321 322 322 322 322 322 323 322 322 323 322 321 321
167 176 161 77 188 197 203 207 212 221 238 257 266 266 261 252 244 246 257 269 280 283 286 296 306 312 315 316 318 319 318 319 320 321 322 322 323 321 320 321 320 320 321
204 230 241 255 251 240 237 235 238 244 252 260 263 269 268 260 259 258 264 271 277 283 293 302 307 312 315 316 317 317 317 319 320 320 321 322 321 319 319 320 320 321 321
224 244 245 251 255 250 249 248 251 254 259 265 269 273 274 268 265 264 268 273 280 288 295 299 304 309 313 315 316 315 316 318 319 320 321 321 320 319 320 319 319 319 319
258 251 247 245 249 256 261 258 259 263 267 270 274 275 276 277 271 268 270 274 279 286 291 296 303 309 312 313 314 313 315 318 319 320 321 321 320 320 320 318 318 317 318
255 256 252 248 248 253 258 262 266 267 268 270 272 275 276 277 272 270 271 274 280 287 293 298 304 307 309 311 312 313 315 317 318 320 320 319 319 319 318 317 317 317 318
261 261 258 254 253 259 262 263 265 266 269 272 273 275 275 274 272 271 274 278 283 288 292 297 302 306 308 309 310 313 313 315 315 317 316 315 314 314 314 313 313 315 316
262 263 266 269 269 269 269 270 271 273 275 277 277 278 277 274 274 275 277 280 284 288 293 297 302 305 306 308 311 311 313 313 314 315 313 312 312 314 315 312 315 315 314
268 271 273 273 275 275 274 274 275 275 276 276 275 275 275 275 276 277 280 284 288 292 297 299 302 304 306 309 308 308 310 312 314 315 316 313 313 315 314 313 313 311 312